User: anonymous
Location: Turtle Rock Observatory
(36.6913°N, 81.9708°W)
Time: 19:54:39
(UTC-04:00)
Language:

Cosmos 1125 Rocket - Orbit

View from above orbital plane
View from above orbital plane
View from above satellite
View from above satellite

Ground track
Ground track

The orbit data is extracted from the following two-line orbital elements,

1 11511U 79078B   14261.88517250  .00000193  00000-0  74680-4 0  8856
2 11511 074.0398 357.2135 0014657 127.3677 014.6357 14.36449766834690
Epoch (UTC): 18 September 2014 21:14:38
Eccentricity: 0.0014657
inclination: 74.0398°
perigee height: 760 km
apogee height: 781 km
right ascension of ascending node: 357.2135°
argument of perigee: 127.3677°
revolutions per day: 14.36449766
mean anomaly at epoch: 14.6357°
orbit number at epoch: 83469

The dashed part of the orbit path shows where the satellite is in the earth's shadow,  

DLR